Location: B�di�
(14.6834°N, 3.1047°W)
Time: 03:29:54
(UTC+00:00)

IRS-1A Rocket - Pass Details

Date: 24 January 2020
Orbit: 851 x 931 km, 99.2° (Epoch: 17 February)

Event Time Altitude Azimuth Distance (km) Brightness Sun altitude
Rises 19:31:27 0° 155° (SSE) 3,562 7.4 -20.3°
Reaches altitude 10° 19:33:56 10° 150° (SSE) 2,613 6.6 -20.9°
Maximum altitude 19:39:35 52° 75° (ENE) 1,113 4.4 -22.2°
Drops below altitude 10° 19:45:08 10° 0° (N) 2,570 6.6 -23.5°
Sets 19:47:34 0° 356° (N) 3,499 7.3 -24.0°
